This is the latest recevied weather packets stored in our database for station/object KE6YLF. If no packets are shown the sender has not sent any weather packets the latest 10 day(s).
| Time | Temp. | Humidity | Pressure | Rain* | Wind** | Luminosity | Snow |
|---|---|---|---|---|---|---|---|
| 1788205434 | 31.67° C | 48% | 1078.2 hPa | 0 mm | - | - | - |
| 1788205133 | 31.67° C | 48% | 1078.4 hPa | 0 mm | - | - | - |
| 1788204828 | 31.67° C | 48% | 1078.3 hPa | 0 mm | - | - | - |
| 1788204524 | 31.67° C | 49% | 1078.3 hPa | 0 mm | - | - | - |
| 1788204224 | 31.67° C | 49% | 1078.6 hPa | 0 mm | - | - | - |
| 1788203920 | 31.67° C | 50% | 1078.5 hPa | 0 mm | - | - | - |
| 1788203616 | 30.56° C | 52% | 1078.7 hPa | 0 mm | - | - | - |
| 1788203312 | 31.11° C | 52% | 1078.5 hPa | 0 mm | - | - | - |
| 1788203011 | 31.67° C | 51% | 1078.6 hPa | 0 mm | - | - | - |
| 1788202711 | 31.11° C | 51% | 1078.7 hPa | 0 mm | - | - | - |
| 1788202407 | 30.56° C | 52% | 1079 hPa | 0 mm | - | - | - |
| 1788202105 | 30.56° C | 51% | 1078.6 hPa | 0 mm | - | - | - |
| 1788201802 | 31.11° C | 51% | 1079 hPa | 0 mm | - | - | - |
| 1788201502 | 31.11° C | 50% | 1078.9 hPa | 0 mm | - | - | - |
| 1788201201 | 31.11° C | 51% | 1078.9 hPa | 0 mm | - | - | - |
| 1788200901 | 30.56° C | 51% | 1078.7 hPa | 0 mm | - | - | - |
| 1788200601 | 30.56° C | 52% | 1079.1 hPa | 0 mm | - | - | - |
| 1788200296 | 30.56° C | 52% | 1079 hPa | 0 mm | - | - | - |
| 1788199991 | 30° C | 52% | 1078.9 hPa | 0 mm | - | - | - |
| 1788199687 | 30° C | 54% | 1078.9 hPa | 0 mm | - | - | - |
| 1788199382 | 29.44° C | 55% | 1079.1 hPa | 0 mm | - | - | - |
| 1788199081 | 30.56° C | 55% | 1079.1 hPa | 0 mm | - | - | - |
| 1788198778 | 30° C | 56% | 1079.2 hPa | 0 mm | - | - | - |
| 1788198473 | 30° C | 57% | 1079 hPa | 0 mm | - | - | - |
| 1788198168 | 30° C | 58% | 1079.1 hPa | 0 mm | - | - | - |
* Rain latest hour (hover to see other rain measurements)
** Current wind speed in m/s (hover to see current wind gust speed)